Home > Weather > Kilgore > Past weeks

Flag for USA Weather for the Past 2 Weeks in Kilgore, Texas, USA

Now
76 °F

Overcast.


Feels Like: 77 °F
Forecast: 72 / 84 °F
Wind: 12 mph from South

Location: Gregg County Airport

Current Time: Apr 29, 2016 at 7:58:39 AM

Latest Report: Apr 29, 2016 at 6:53 AM


Visibility: 10 mi

Pressure: 29.72 "Hg

Humidity: 80%

Dew Point: 69 °F

Location of KilgoreLocation

Historic Weather in Kilgore — Graph

°F

Kilgore Temperature Yesterday

Maximum temperature yesterday: 84 °F (at 3:53 PM)
Minimum temperature yesterday: 56 °F (at 3:53 AM)
Average temperature yesterday: 71 °F

High & Low Weather Summary for the Past Weeks

 TemperatureHumidityPressure
High85 °F (Apr 26, 4:53 PM)100% (Apr 15, 2:59 AM)30.17 "Hg (Apr 15, 2:59 AM)
Low49 °F (Apr 15, 5:53 AM)36% (Apr 22, 2:53 PM)29.60 "Hg (Apr 26, 7:53 PM)
Average68 °F78%29.92 "Hg
* Reported Apr 14 5:53 AM — Apr 29 5:53 AM, Kilgore, Weather by CustomWeather, © 2016

Note: Actual official high and low records may vary slightly from our data, if they occured in-between our weather recording intervals... More about our weather records

Advertising

Kilgore Weather History for the Previous 24 Hours

Scroll right to see more
 ConditionsComfort  
Time TempWeatherWind HumidityBarometerVisibility
5:53 AM
Fri, Apr 29
75 °FMostly cloudy.13 mph85%29.70 "Hg10 mi
4:53 AM74 °FMostly cloudy.9 mph91%29.70 "Hg10 mi
3:53 AM73 °FOvercast.6 mph88%29.72 "Hg10 mi
2:53 AM69 °FPassing clouds.5 mph84%29.75 "Hg10 mi
1:53 AM71 °FClear.5 mph81%29.78 "Hg10 mi
12:53 AM73 °FPartly cloudy.6 mph69%29.81 "Hg10 mi
11:53 PM
Thu, Apr 28
73 °FPartly cloudy.8 mph66%29.82 "Hg10 mi
10:53 PM71 °FPassing clouds.8 mph73%29.82 "Hg10 mi
9:53 PM71 °FClear.5 mph71%29.83 "Hg10 mi
8:53 PM72 °FSunny.5 mph68%29.81 "Hg10 mi
7:53 PM76 °FSunny.5 mph60%29.80 "Hg10 mi
6:53 PM82 °FSunny.7 mph46%29.81 "Hg10 mi
5:53 PM83 °FSunny.12 mph43%29.82 "Hg10 mi
4:53 PM84 °FSunny.10 mph43%29.81 "Hg10 mi
3:53 PM84 °FSunny.12 mph43%29.83 "Hg10 mi
2:53 PM83 °FSunny.9 mph43%29.85 "Hg10 mi
1:53 PM82 °FSunny.6 mph46%29.86 "Hg10 mi
12:53 PM81 °FSunny.6 mph47%29.88 "Hg10 mi
11:53 AM79 °FSunny.6 mph50%29.89 "Hg10 mi
10:53 AM76 °FSunny.8 mph56%29.89 "Hg10 mi
9:53 AM72 °FSunny.13 mph61%29.88 "Hg10 mi
8:53 AM68 °FSunny.6 mph73%29.88 "Hg10 mi
7:53 AM61 °FSunny.No wind90%29.87 "Hg10 mi
Weather by CustomWeather, © 2016

See weather overviewHow to use our weather pages